Coolidge Muni, Coolidge, AZ

10:52 PM MST on December 11, 2019 (GMT -0700)
Coolidge Muni, Coolidge

Weather History for KP08 - September, 2019

Change the Weather History Date:

Sunday, September 22, 2019

  Actual Average (WUND) Record (WUND)
Temperature  
Mean Temperature 80 °F -  
Max Temperature 95 °F - - (-1)
Min Temperature 66 °F - - (-1)
Cooling Degree Days 16    
Growing Degree Days 30 (Base 50)    
Moisture  
Dew Point 43 °F    
Average Humidity 25    
Maximum Humidity 54    
Minimum Humidity 16    
Precipitation  
Precipitation 0.00 in - - ()
Sea Level Pressure  
Sea Level Pressure 29.93 in    
Wind  
Wind Speed 6 mph ()    
Max Wind Speed 13 mph    
Max Gust Speed 17 mph    
Visibility 10.0 miles    
Events      
Averages and records for this station are not official NWS values.
T = Trace of Precipitation, MM = Missing Value Source: Averaged Metar Reports

Daily Weather History Graph

Daily Weather History Graph

Search for Another Location

Airport or City:

Astronomy

Sep. 22, 2019 Rise Set
Actual Time 6:13 AM MST 6:22 PM MST
Civil Twilight 5:49 AM MST 6:47 PM MST
Nautical Twilight 5:20 AM MST 7:15 PM MST
Astronomical Twilight 4:51 AM MST 7:44 PM MST
Moon No Moon Rise 2:01 PM MST (9/22)
Length of Visible Light 12h 58m
Length of Day
12h 08m
Last Quarter, 43% of the Moon is Illuminated
Sep 22
Last Quarter
Sep 28
New
Oct 5
First Quarter
Oct 13
Full
Oct 21
Last Quarter

Hourly Weather History & Observations

Time (MST) Temp. Heat Index Dew Point Humidity Pressure Visibility Wind Dir Wind Speed Gust Speed Precip Events Conditions
12:15 AM 71.6 °F - 28.4 °F 20% 29.90 in 10.0 mi ESE 9.2 mph - N/A   Clear
12:35 AM 73.4 °F - 30.2 °F 20% 29.90 in 10.0 mi ESE 9.2 mph - N/A   Clear
12:55 AM 73.4 °F - 30.2 °F 20% 29.91 in 10.0 mi ESE 8.1 mph - N/A   Clear
1:15 AM 73.4 °F - 30.2 °F 20% 29.91 in 10.0 mi ESE 9.2 mph - N/A   Clear
1:35 AM 71.6 °F - 30.2 °F 22% 29.92 in 10.0 mi SW 6.9 mph - N/A   Clear
1:55 AM 68.0 °F - 33.8 °F 28% 29.92 in 10.0 mi SSW 5.8 mph - N/A   Clear
2:15 AM 69.8 °F - 35.6 °F 28% 29.91 in 10.0 mi South 4.6 mph - N/A   Clear
2:35 AM 69.8 °F - 33.8 °F 27% 29.91 in 10.0 mi SSE 6.9 mph - N/A   Clear
3:15 AM 68.0 °F - 33.8 °F 28% 29.92 in 10.0 mi SSE 5.8 mph - N/A   Clear
3:30 AM 68.0 °F - 33.8 °F 28% 29.92 in 10.0 mi SSE 3.5 mph - N/A   Clear
3:55 AM 69.8 °F - 32.0 °F 25% 29.92 in 10.0 mi ESE 6.9 mph - N/A   Mostly Cloudy
4:15 AM 68.0 °F - 32.0 °F 26% 29.93 in 10.0 mi East 4.6 mph - N/A   Partly Cloudy
4:30 AM 68.0 °F - 32.0 °F 26% 29.93 in 10.0 mi East 8.1 mph - N/A   Scattered Clouds
4:55 AM 68.0 °F - 32.0 °F 26% 29.94 in 10.0 mi East 6.9 mph - N/A   Overcast
5:15 AM 68.0 °F - 32.0 °F 26% 29.94 in 10.0 mi East 6.9 mph - N/A   Partly Cloudy
5:35 AM 66.2 °F - 32.0 °F 28% 29.95 in 10.0 mi East 6.9 mph - N/A   Clear
5:55 AM 68.0 °F - 32.0 °F 26% 29.95 in 10.0 mi East 6.9 mph - N/A   Clear
6:15 AM 68.0 °F - 32.0 °F 26% 29.95 in 10.0 mi East 8.1 mph - N/A   Clear
6:35 AM 68.0 °F - 33.8 °F 28% 29.96 in 10.0 mi ESE 9.2 mph - N/A   Clear
6:55 AM 69.8 °F - 33.8 °F 27% 29.97 in 10.0 mi ESE 6.9 mph - N/A   Clear
7:15 AM 71.6 °F - 33.8 °F 25% 29.97 in 10.0 mi ESE 6.9 mph - N/A   Clear
7:30 AM 73.4 °F - 35.6 °F 25% 29.98 in 10.0 mi East 5.8 mph - N/A   Clear
7:55 AM 77.0 °F - 42.8 °F 29% 29.98 in 8.0 mi East 5.8 mph - N/A   Clear
8:15 AM 78.8 °F - 44.6 °F 30% 29.99 in 10.0 mi Calm Calm - N/A   Clear
8:35 AM 82.4 °F - 39.2 °F 21% 30.00 in 10.0 mi Calm Calm - N/A   Clear
8:55 AM 84.2 °F - 46.4 °F 27% 30.00 in 10.0 mi Calm Calm - N/A   Clear
9:15 AM 84.2 °F - 50.0 °F 30% 30.00 in 10.0 mi Calm Calm - N/A   Clear
9:35 AM 86.0 °F - 48.2 °F 27% 30.00 in 10.0 mi Calm Calm - N/A   Clear
9:55 AM 86.0 °F - 46.4 °F 25% 30.00 in 10.0 mi Variable 3.5 mph - N/A   Clear
10:15 AM 87.8 °F - 44.6 °F 22% 29.99 in 10.0 mi Calm Calm - N/A   Clear
10:35 AM 89.6 °F - 46.4 °F 22% 29.99 in 10.0 mi NNW 5.8 mph - N/A   Clear
10:55 AM 89.6 °F - 42.8 °F 20% 29.99 in 10.0 mi Variable 3.5 mph - N/A   Clear
11:15 AM 91.4 °F - 46.4 °F 21% 29.98 in 10.0 mi Calm Calm - N/A   Clear
11:35 AM 91.4 °F - 39.2 °F 16% 29.98 in 10.0 mi NW 6.9 mph - N/A   Clear
11:55 AM 93.2 °F - 41.0 °F 16% 29.97 in 10.0 mi NNW 5.8 mph - N/A   Clear
12:15 PM 93.2 °F - 41.0 °F 16% 29.96 in 10.0 mi Variable 5.8 mph - N/A   Clear
12:35 PM 93.2 °F - 42.8 °F 17% 29.95 in 10.0 mi WNW 11.5 mph - N/A   Clear
12:50 PM 93.2 °F - 44.6 °F 19% 29.95 in 10.0 mi West 9.2 mph - N/A   Clear
1:15 PM 93.2 °F - 44.6 °F 19% 29.94 in 10.0 mi WNW 3.5 mph 12.7 mph N/A   Clear
1:35 PM 95.0 °F - 44.6 °F 18% 29.93 in 10.0 mi Variable 6.9 mph - N/A   Clear
1:55 PM 93.2 °F - 46.4 °F 20% 29.92 in 10.0 mi Variable 4.6 mph 11.5 mph N/A   Clear
2:15 PM 95.0 °F - 46.4 °F 19% 29.92 in 10.0 mi West 8.1 mph - N/A   Clear
2:35 PM 95.0 °F - 46.4 °F 19% 29.91 in 10.0 mi West 10.4 mph 17.3 mph N/A   Clear
2:55 PM 93.2 °F - 46.4 °F 20% 29.90 in 10.0 mi WNW 6.9 mph - N/A   Clear
3:15 PM 93.2 °F - 46.4 °F 20% 29.89 in 10.0 mi Variable 4.6 mph 11.5 mph N/A   Clear
3:35 PM 93.2 °F - 48.2 °F 21% 29.88 in 10.0 mi West 6.9 mph - N/A   Clear
3:55 PM 95.0 °F - 48.2 °F 20% 29.88 in 10.0 mi West 6.9 mph - N/A   Clear
4:15 PM 95.0 °F - 48.2 °F 20% 29.88 in 10.0 mi NW 6.9 mph 13.8 mph N/A   Clear
4:35 PM 95.0 °F - 48.2 °F 20% 29.88 in 10.0 mi NW 8.1 mph 13.8 mph N/A   Clear
4:55 PM 95.0 °F - 48.2 °F 20% 29.88 in 10.0 mi NW 8.1 mph - N/A   Clear
5:15 PM 95.0 °F - 48.2 °F 20% 29.88 in 10.0 mi West 3.5 mph - N/A   Clear
5:35 PM 93.2 °F - 44.6 °F 19% 29.88 in 10.0 mi NNW 8.1 mph - N/A   Clear
5:55 PM 93.2 °F - 42.8 °F 17% 29.88 in 10.0 mi NNW 8.1 mph - N/A   Clear
6:15 PM 91.4 °F - 42.8 °F 18% 29.88 in 10.0 mi North 9.2 mph - N/A   Clear
6:35 PM 89.6 °F - 44.6 °F 21% 29.88 in 10.0 mi North 6.9 mph - N/A   Clear
6:55 PM 89.6 °F - 44.6 °F 21% 29.88 in 10.0 mi North 5.8 mph - N/A   Clear
7:15 PM 87.8 °F - 44.6 °F 22% 29.88 in 10.0 mi NNE 5.8 mph - N/A   Clear
7:35 PM 86.0 °F - 44.6 °F 23% 29.89 in 10.0 mi NNE 5.8 mph - N/A   Clear
7:55 PM 86.0 °F - 44.6 °F 23% 29.90 in 10.0 mi NNE 5.8 mph - N/A   Scattered Clouds
8:15 PM 87.8 °F - 44.6 °F 22% 29.91 in 10.0 mi ENE 5.8 mph - N/A   Overcast
8:30 PM 87.8 °F - 44.6 °F 22% 29.91 in 10.0 mi East 3.5 mph - N/A   Overcast
8:55 PM 87.8 °F - 44.6 °F 22% 29.93 in 10.0 mi South 5.8 mph - N/A   Overcast
9:10 PM 87.8 °F - 46.4 °F 24% 29.93 in 10.0 mi SSW 9.2 mph - N/A   Overcast
9:35 PM 86.0 °F - 48.2 °F 27% 29.94 in 10.0 mi South 6.9 mph - N/A   Mostly Cloudy
9:55 PM 84.2 °F 83.0 °F 55.4 °F 37% 29.94 in 10.0 mi SW 5.8 mph - N/A   Scattered Clouds
10:35 PM 84.2 °F 85.0 °F 62.6 °F 48% 29.95 in 10.0 mi SSW 12.7 mph - N/A   Partly Cloudy
10:55 PM 84.2 °F 85.6 °F 64.4 °F 51% 29.94 in 10.0 mi SSW 12.7 mph - N/A   Clear
11:15 PM 84.2 °F 85.6 °F 64.4 °F 51% 29.94 in 10.0 mi South 11.5 mph - N/A   Clear
11:30 PM 84.2 °F 85.6 °F 64.4 °F 51% 29.95 in 10.0 mi SSW 11.5 mph - N/A   Scattered Clouds
11:55 PM 82.4 °F 83.9 °F 64.4 °F 54% 29.95 in 10.0 mi SSW 10.4 mph - N/A   Mostly Cloudy